Location: Asheville, NC
(35.6000°N, 82.5500°W)
Time: 06:22:42
(UTC-05:00)

Vanguard 1 - Pass Details

Date: 17 February 2018
Orbit: 650 x 3833 km, 34.2° (Epoch: 24 February)

Event Time Altitude Azimuth Distance (km) Brightness Sun altitude
Rises 17:38:01 0° 260° (W) 5,139 16.0 6.2°
Reaches altitude 10° 17:42:06 10° 260° (W) 3,653 15.5 5.4°
Maximum altitude 17:50:28 78° 176° (S) 985 10.2 3.8°
Drops below altitude 10° 17:55:31 10° 90° (E) 2,257 11.3 2.8°
Sets 17:57:32 0° 88° (E) 3,059 12.0 2.4°
